Overview Statistics Trail Chart Weather Telemetry Raw packets
 

This is the latest recevied weather packets stored in our database for station/object LU4EGV-13. If no packets are shown the sender has not sent any weather packets the latest 10 day(s).

<< 32 33 34 35 36 37 38 >>
Time Temp. Humidity Pressure Rain* Wind** Luminosity Snow
1788184123 17.22° C 74% 1013.2 hPa 0 mm - - -
1788183517 16.67° C 79% 1012.8 hPa 0 mm - - -
1788182922 15.56° C 81% 1012.1 hPa 0 mm - - -
1788182304 15° C 81% 1012.4 hPa 0 mm - - -
1788181700 15° C 81% 1012.8 hPa 0 mm - - -
1788181092 15° C 81% 1012.5 hPa 0 mm - - -
1788180486 15° C 82% 1012.8 hPa 0 mm - - -
1788179880 15.56° C 83% 1012.9 hPa 0 mm - - -
1788179274 15° C 84% 1012.9 hPa 0 mm - - -
1788178667 14.44° C 85% 1012.7 hPa 0 mm - - -
1788178061 14.44° C 86% 1011.9 hPa 0 mm - - -
1788177454 15° C 86% 1011.8 hPa 0 mm - - -
1788176849 15° C 86% 1012.2 hPa 0 mm - - -
1788176244 15° C 87% 1012.1 hPa 0 mm - - -
1788175638 15° C 89% 1012.3 hPa 0 mm - - -
1788175030 14.44° C 91% 1012.5 hPa 0 mm - - -
1788174424 14.44° C 91% 1012.4 hPa 0 mm - - -
1788173817 13.89° C 92% 1012.2 hPa 0 mm - - -
1788173212 13.33° C 92% 1012.3 hPa 0 mm - - -
1788172605 13.33° C 92% 1012.3 hPa 0 mm - - -
1788171999 12.78° C 90% 1012.5 hPa 0 mm - - -
1788171393 12.78° C 90% 1012.6 hPa 0 mm - - -
1788170787 12.22° C 89% 1012.7 hPa 0 mm - - -
1788170182 11.67° C 90% 1012.7 hPa 0 mm - - -
1788169602 12.22° C 89% 1012.3 hPa 0 mm - - -

* Rain latest hour (hover to see other rain measurements)
** Current wind speed in m/s (hover to see current wind gust speed)